NOAA 16 DEB, 41422

Orbit data source: Space-Track

NOAA 16 DEB, 41422 is space debris in LEO originally from a launch on Thu, 21 Sep 2000 UTC launched from the Air Force Western Test Range (AFWTR). Debris objects in space refer to the collection of defunct objects orbiting the Earth. Examples of debris include non-operational satellites, rocket bodies, and fragments generated from explosions, collisions, or faulty payload assembly.

Loading next visibility...
NOAA 16 DEB details
Identifier
41422, 2000-055LB
Orbit
LEO
Last TLE update17 hours ago
Origin
Flag of USNOAA (US)
ManufacturerUnknown
MissionSpacecraft
Bus & MotorUnknown
MassUnknown
Launch date (UTC)
2000-09-21 (24 years ago)
Launch vehicleUnknown
Launch site
Air Force Western Test Range (AFWTR)
Object type
Payload
Rocket body
Debris
Shape & HBRUnknown
Radar Cross SectionSmall (<0.1 m²)

Expand to show TLE details & history

TLE from 17 hours ago
0 NOAA 16 DEB
1 41422U 00055LB  24347.64574762  .00005021  00000-0  22865-2 0  9997
2 41422  98.7431  57.5638 0014073 341.7115  18.3555 14.22057224455659
Epoch: 2024-12-12T15:29Z
Definitive object data (Epoch: 2024-12-12T15:29:52.594Z)
Latitude0.00001°
Longitude103.27156°
Altitude811.707 km
Speed7.452 km/s
True Right ascension03h 50m 15s
True Declination0° 00' 00"
Sunlit
Object was in full shadow at TLE epoch
Visualization TLE readout
Latitude56.03352°
Longitude90.85442°
Altitude825.443 km
Speed7.447 km/s
Apparent Right ascension22h 27m 58s
Apparent Declination21° 58' 12"
Sunlit
Object is in full shadow
Visualization observer readout
Local Sidereal Time07:08:39
Azimuth313.429° NW
Elevation-12.636°
Doppler factor1
Orbital elements
Apogee altitude825.685 km
Perigee altitude805.438 km
Semi-major axis7,193.698 km
Eccentricity0.0014073
Inclination98.7431°
RAAN57.5638°
Arg. of periapsis341.7115°
True anomaly18.40637°
Mean anomaly18.3555°
Eccentric anomaly18.38093°
Mean motion3.55725 °/min
BSTAR0.0022865
Orbital period101.2 mins
Loading maneuver chart data...
Loading historical data...
Loading historical data...
Loading historical data...
Loading historical data...
Loading historical data...
Loading historical data...
Loading historical data...

NOAA 16 DEB Visibility forecast

Observer location: undefined°, undefined

Span
Click to sort rows by Start time (UTC) header in descending order
Start Az.
Max El. time (UTC)
Max El. Az.
Max El.
End time (UTC)
End Az.
10 mins2024-12-13 17:24:01.548Z23.086° NE2024-12-13 17:29:01.548Z94.244° ESE39.239°2024-12-13 17:34:01.548Z177.277° S
5 mins2024-12-13 19:07:01.548Z321.424° NNW2024-12-13 19:09:01.548Z292.984° NW18.626°2024-12-13 19:12:01.548Z256.285° W
9 mins2024-12-14 04:46:01.548Z161.839° S2024-12-14 04:50:01.548Z125.916° SE44.588°2024-12-14 04:55:01.548Z348.105° N
|